EZY86KV EGKK-LEBL

Flight info

Callsign EZY86KV
Flight time N/A
Altitude 35000
Route SFD Y47 BENBO UY47 DRAKE L151 SITET UN859 SOPIL/N0444F370 DCT BALAN DCT EVPOK DCT NARAK DCT GAI DCT LOMRA DCT ROCAN DCT PUMAL
Aircraft A320/M-SDE2E3FGHIJ1RWXYZ/LB1

Departure

Time 2026-05-04 12:38
Airport London Gatwick Airport (EGKK)

Arrival

Time N/A
Airport Josep Tarradellas Barcelona-El Prat Airport (LEBL)
Time Latitude Longitude Altitude Speed Heading
2026-05-04 11:59 51.15470 -0.17091 205 ft 0 kts 348°
2026-05-04 12:20 51.15466 -0.17089 205 ft 2 kts 348°
2026-05-04 12:21 51.15451 -0.17084 215 ft 2 kts 348°
2026-05-04 12:21 51.15434 -0.17077 209 ft 3 kts 325°
2026-05-04 12:21 51.15422 -0.17057 216 ft 3 kts 288°
2026-05-04 12:21 51.15419 -0.17035 205 ft 0 kts 257°
2026-05-04 12:25 51.15418 -0.17045 212 ft 3 kts 257°
2026-05-04 12:25 51.15409 -0.17106 206 ft 6 kts 257°
2026-05-04 12:26 51.15406 -0.17131 209 ft 2 kts 257°
2026-05-04 12:26 51.15402 -0.17160 216 ft 6 kts 257°
2026-05-04 12:26 51.15381 -0.17254 217 ft 10 kts 250°
2026-05-04 12:26 51.15345 -0.17357 211 ft 15 kts 216°
2026-05-04 12:27 51.15291 -0.17518 205 ft 18 kts 258°
2026-05-04 12:27 51.15263 -0.17732 208 ft 21 kts 257°
2026-05-04 12:27 51.15228 -0.17976 214 ft 24 kts 257°
2026-05-04 12:27 51.15192 -0.18250 210 ft 26 kts 260°
2026-05-04 12:28 51.15156 -0.18550 214 ft 29 kts 257°
2026-05-04 12:28 51.15112 -0.18867 214 ft 27 kts 258°
2026-05-04 12:28 51.15077 -0.19119 205 ft 19 kts 259°
2026-05-04 12:28 51.15027 -0.19271 212 ft 13 kts 184°
2026-05-04 12:29 51.14971 -0.19258 208 ft 5 kts 232°
2026-05-04 12:29 51.14957 -0.19312 208 ft 8 kts 259°
2026-05-04 12:29 51.14939 -0.19432 215 ft 13 kts 257°
2026-05-04 12:29 51.14918 -0.19581 207 ft 15 kts 257°
2026-05-04 12:30 51.14894 -0.19757 210 ft 18 kts 261°
2026-05-04 12:30 51.14866 -0.19977 212 ft 23 kts 257°
2026-05-04 12:30 51.14828 -0.20238 209 ft 26 kts 264°
2026-05-04 12:30 51.14795 -0.20531 211 ft 28 kts 253°
2026-05-04 12:31 51.14758 -0.20767 204 ft 21 kts 257°
2026-05-04 12:31 51.14726 -0.21005 216 ft 23 kts 257°
2026-05-04 12:31 51.14708 -0.21132 209 ft 0 kts 257°
2026-05-04 12:32 51.14704 -0.21160 205 ft 8 kts 258°
2026-05-04 12:33 51.14696 -0.21217 211 ft 0 kts 258°
2026-05-04 12:35 51.14690 -0.21265 209 ft 12 kts 257°
2026-05-04 12:35 51.14651 -0.21331 209 ft 7 kts 182°
2026-05-04 12:36 51.14587 -0.21318 215 ft 10 kts 166°
2026-05-04 12:36 51.14532 -0.21258 206 ft 10 kts 127°
2026-05-04 12:36 51.14522 -0.21158 206 ft 0 kts 78°
2026-05-04 12:37 51.14561 -0.20926 208 ft 60 kts 75°
2026-05-04 12:37 51.14699 -0.19894 213 ft 127 kts 76°
2026-05-04 12:37 51.14920 -0.18261 374 ft 163 kts 78°
2026-05-04 12:38 51.15030 -0.17451 730 ft 162 kts 77°
2026-05-04 12:38 51.15293 -0.15624 1401 ft 173 kts 77°
2026-05-04 12:38 51.15554 -0.13751 2094 ft 173 kts 77°
2026-05-04 12:38 51.15807 -0.11891 2744 ft 172 kts 77°
2026-05-04 12:39 51.16060 -0.10015 3348 ft 173 kts 77°
2026-05-04 12:39 51.16264 -0.08059 3750 ft 188 kts 93°
2026-05-04 12:39 51.15746 -0.06125 4142 ft 200 kts 136°
2026-05-04 12:39 51.14486 -0.05156 4575 ft 209 kts 168°
2026-05-04 12:40 51.12996 -0.04660 4947 ft 227 kts 169°
2026-05-04 12:40 51.11396 -0.04144 5451 ft 242 kts 169°
2026-05-04 12:40 51.09686 -0.03590 5974 ft 259 kts 168°
2026-05-04 12:40 51.08500 -0.03142 6323 ft 270 kts 166°
2026-05-04 12:41 51.06679 -0.02334 6812 ft 273 kts 164°
2026-05-04 12:41 51.04257 -0.01164 7471 ft 275 kts 163°
2026-05-04 12:41 51.02426 -0.00267 7974 ft 277 kts 164°
2026-05-04 12:41 51.00579 0.00632 8487 ft 278 kts 163°
2026-05-04 12:42 50.98722 0.01529 9009 ft 280 kts 164°
2026-05-04 12:42 50.97455 0.02135 9364 ft 282 kts 164°
2026-05-04 12:42 50.95573 0.03028 9898 ft 284 kts 164°
2026-05-04 12:42 50.93677 0.03925 10425 ft 285 kts 164°
2026-05-04 12:43 50.91758 0.04833 11172 ft 289 kts 164°
2026-05-04 12:43 50.89826 0.05745 11937 ft 292 kts 164°
2026-05-04 12:43 50.87871 0.06665 12691 ft 295 kts 164°
2026-05-04 12:43 50.85894 0.07594 13445 ft 298 kts 164°
2026-05-04 12:44 50.83922 0.08516 14106 ft 301 kts 164°
2026-05-04 12:44 50.81906 0.09455 14764 ft 303 kts 164°
2026-05-04 12:44 50.79875 0.10403 15434 ft 306 kts 164°
2026-05-04 12:44 50.77825 0.11336 16090 ft 308 kts 168°
2026-05-04 12:45 50.75700 0.11720 16743 ft 310 kts 181°
2026-05-04 12:45 50.73519 0.11304 17059 ft 324 kts 193°
2026-05-04 12:45 50.71275 0.10474 17270 ft 339 kts 193°
2026-05-04 12:45 50.68921 0.09609 17498 ft 354 kts 192°
2026-05-04 12:46 50.66501 0.08729 17997 ft 359 kts 192°
2026-05-04 12:46 50.64052 0.07842 18563 ft 362 kts 192°
2026-05-04 12:46 50.61593 0.06952 19101 ft 364 kts 193°
2026-05-04 12:46 50.59113 0.06055 19644 ft 366 kts 193°
2026-05-04 12:47 50.56627 0.05158 20191 ft 368 kts 193°
2026-05-04 12:47 50.54129 0.04255 20728 ft 369 kts 193°
2026-05-04 12:47 50.51616 0.03348 21247 ft 371 kts 193°
2026-05-04 12:47 50.49094 0.02442 21765 ft 373 kts 193°
2026-05-04 12:48 50.46556 0.01532 22281 ft 375 kts 193°
2026-05-04 12:48 50.44007 0.00617 22796 ft 376 kts 193°
2026-05-04 12:48 50.41448 -0.00301 23294 ft 378 kts 193°
2026-05-04 12:48 50.38878 -0.01220 23756 ft 380 kts 193°
2026-05-04 12:49 50.36296 -0.02142 24159 ft 382 kts 193°
2026-05-04 12:49 50.33706 -0.03068 24558 ft 383 kts 193°
2026-05-04 12:49 50.31097 -0.03998 24955 ft 385 kts 193°
2026-05-04 12:49 50.28485 -0.04927 25342 ft 386 kts 193°
2026-05-04 12:50 50.25856 -0.05862 25717 ft 388 kts 193°
2026-05-04 12:50 50.23182 -0.06480 26097 ft 390 kts 183°
2026-05-04 12:50 50.20464 -0.06311 26469 ft 393 kts 173°
2026-05-04 12:50 50.17792 -0.05323 26809 ft 397 kts 162°
2026-05-04 12:51 50.15238 -0.03635 27175 ft 401 kts 158°
2026-05-04 12:51 50.12694 -0.01846 27515 ft 403 kts 158°
2026-05-04 12:51 50.10110 -0.00129 27858 ft 403 kts 163°
2026-05-04 12:51 50.07413 0.01050 28201 ft 403 kts 168°
2026-05-04 12:52 50.04685 0.02111 28551 ft 405 kts 168°
2026-05-04 12:52 50.01949 0.03183 28890 ft 407 kts 167°
2026-05-04 12:52 49.99195 0.04266 29235 ft 409 kts 167°
2026-05-04 12:52 49.96431 0.05354 29554 ft 411 kts 168°
2026-05-04 12:53 49.93654 0.06442 29863 ft 412 kts 168°
2026-05-04 12:53 49.90874 0.07528 30166 ft 414 kts 168°
2026-05-04 12:53 49.88071 0.08620 30416 ft 416 kts 167°
2026-05-04 12:53 49.85262 0.09718 30659 ft 417 kts 167°
2026-05-04 12:54 49.82443 0.10827 30897 ft 419 kts 167°
2026-05-04 12:54 49.79617 0.11939 31191 ft 419 kts 167°
2026-05-04 12:54 49.76795 0.13044 31541 ft 418 kts 167°
2026-05-04 12:54 49.73977 0.14144 31881 ft 417 kts 167°
2026-05-04 12:55 49.71203 0.15223 32207 ft 416 kts 167°
2026-05-04 12:55 49.68360 0.16324 32539 ft 416 kts 167°
2026-05-04 12:55 49.65592 0.17412 32865 ft 415 kts 167°
2026-05-04 12:55 49.62796 0.18535 33191 ft 415 kts 166°
2026-05-04 12:56 49.60006 0.19669 33525 ft 414 kts 166°
2026-05-04 12:56 49.57221 0.20801 33855 ft 414 kts 166°
2026-05-04 12:56 49.54410 0.21940 34157 ft 413 kts 166°
2026-05-04 12:56 49.51656 0.23052 34405 ft 413 kts 166°
2026-05-04 12:57 49.48875 0.24169 34617 ft 414 kts 167°
2026-05-04 12:57 49.46080 0.25284 34826 ft 415 kts 167°
2026-05-04 12:57 49.43279 0.26403 34966 ft 416 kts 167°
2026-05-04 12:58 49.37734 0.28620 35000 ft 410 kts 167°
2026-05-04 12:58 49.32221 0.30812 34999 ft 409 kts 167°
2026-05-04 12:59 49.26724 0.33052 35003 ft 409 kts 166°
2026-05-04 12:59 49.21231 0.35396 34998 ft 409 kts 166°
2026-05-04 13:00 49.15738 0.37737 34988 ft 410 kts 166°
2026-05-04 13:00 49.10247 0.40045 34986 ft 409 kts 166°
2026-05-04 13:01 49.04756 0.42341 34981 ft 409 kts 166°
2026-05-04 13:01 48.99267 0.44633 34980 ft 409 kts 166°
2026-05-04 13:02 48.93812 0.46901 34978 ft 409 kts 166°
2026-05-04 13:02 48.88287 0.49195 34982 ft 409 kts 166°
2026-05-04 13:03 48.82800 0.51469 34982 ft 409 kts 166°
2026-05-04 13:03 48.77308 0.53732 34976 ft 409 kts 167°
2026-05-04 13:04 48.71809 0.55908 34977 ft 409 kts 167°
2026-05-04 13:04 48.66299 0.58043 34974 ft 408 kts 167°
2026-05-04 13:05 48.60799 0.60178 34970 ft 408 kts 167°
2026-05-04 13:05 48.55293 0.62335 34969 ft 408 kts 167°
2026-05-04 13:06 48.49838 0.64469 34976 ft 408 kts 167°
2026-05-04 13:06 48.44362 0.66692 34963 ft 408 kts 167°
2026-05-04 13:07 48.38884 0.68944 34956 ft 407 kts 167°
2026-05-04 13:07 48.33413 0.71172 34960 ft 407 kts 167°
2026-05-04 13:08 48.27945 0.73385 34962 ft 407 kts 167°
2026-05-04 13:08 48.22470 0.75581 34963 ft 407 kts 167°
2026-05-04 13:09 48.16994 0.77728 34964 ft 407 kts 167°
2026-05-04 13:09 48.11516 0.79877 34960 ft 406 kts 167°
2026-05-04 13:10 48.06040 0.82026 34955 ft 407 kts 167°
2026-05-04 13:10 48.00569 0.84162 34950 ft 407 kts 167°
2026-05-04 13:11 47.95090 0.86294 34941 ft 407 kts 167°
2026-05-04 13:11 47.89610 0.88432 34936 ft 407 kts 167°
2026-05-04 13:12 47.84128 0.90566 34930 ft 407 kts 167°
2026-05-04 13:12 47.78648 0.92686 34937 ft 407 kts 167°
2026-05-04 13:13 47.73167 0.94810 34930 ft 407 kts 167°
2026-05-04 13:13 47.67691 0.96931 34930 ft 407 kts 168°
2026-05-04 13:14 47.62202 0.99043 34932 ft 407 kts 168°
2026-05-04 13:14 47.56714 1.01153 34934 ft 407 kts 168°
2026-05-04 13:15 47.51277 1.03233 34931 ft 407 kts 168°
2026-05-04 13:15 47.45808 1.05319 34930 ft 407 kts 168°
2026-05-04 13:16 47.40240 1.06400 34928 ft 402 kts 182°
2026-05-04 13:16 47.34639 1.06254 34930 ft 403 kts 182°
2026-05-04 13:17 47.29026 1.06121 34934 ft 403 kts 182°
2026-05-04 13:17 47.23430 1.05997 34937 ft 402 kts 182°
2026-05-04 13:18 47.17833 1.05870 34936 ft 402 kts 182°
2026-05-04 13:18 47.12244 1.05729 34939 ft 401 kts 182°
2026-05-04 13:19 47.06661 1.05597 34936 ft 401 kts 182°
2026-05-04 13:19 47.01091 1.05471 34933 ft 400 kts 183°
2026-05-04 13:20 46.95524 1.05249 34939 ft 400 kts 184°
2026-05-04 13:20 46.89967 1.04976 34942 ft 399 kts 184°
2026-05-04 13:21 46.84422 1.04719 34940 ft 399 kts 183°
2026-05-04 13:21 46.78877 1.04481 34945 ft 398 kts 183°
2026-05-04 13:22 46.73334 1.04255 34951 ft 398 kts 183°
2026-05-04 13:22 46.67800 1.04025 34941 ft 397 kts 183°
2026-05-04 13:23 46.62273 1.03791 34940 ft 397 kts 184°
2026-05-04 13:23 46.56785 1.03559 34941 ft 397 kts 184°
2026-05-04 13:24 46.51265 1.03575 34943 ft 398 kts 175°
2026-05-04 13:24 46.45817 1.05267 34928 ft 401 kts 170°
2026-05-04 13:25 46.37675 1.08003 34929 ft 400 kts 170°
2026-05-04 13:25 46.32246 1.09813 34929 ft 400 kts 170°
2026-05-04 13:26 46.26816 1.11615 34927 ft 400 kts 170°
2026-05-04 13:26 46.21394 1.13420 34929 ft 400 kts 170°
2026-05-04 13:27 46.15963 1.15214 34934 ft 400 kts 171°
2026-05-04 13:27 46.10550 1.17003 34936 ft 399 kts 170°
2026-05-04 13:28 46.05135 1.18795 34935 ft 399 kts 171°
2026-05-04 13:28 46.00640 1.20281 34936 ft 399 kts 171°
2026-05-04 13:29 45.95228 1.22066 34934 ft 399 kts 171°
2026-05-04 13:29 45.88945 1.24133 34932 ft 398 kts 171°
2026-05-04 13:30 45.83538 1.25897 34935 ft 398 kts 171°
2026-05-04 13:30 45.79005 1.27368 34939 ft 399 kts 171°
2026-05-04 13:31 45.73594 1.29132 34949 ft 399 kts 171°
2026-05-04 13:31 45.68224 1.30885 34945 ft 398 kts 171°
2026-05-04 13:32 45.62818 1.32636 34943 ft 398 kts 171°
2026-05-04 13:32 45.57415 1.34392 34936 ft 398 kts 171°
2026-05-04 13:33 45.52012 1.36148 34926 ft 398 kts 171°
2026-05-04 13:33 45.46607 1.37890 34926 ft 398 kts 171°
2026-05-04 13:34 45.41201 1.39630 34928 ft 399 kts 171°
2026-05-04 13:34 45.35793 1.41371 34936 ft 398 kts 171°
2026-05-04 13:35 45.27685 1.43977 34930 ft 398 kts 171°
2026-05-04 13:36 45.22285 1.45701 34928 ft 398 kts 172°
2026-05-04 13:36 45.16884 1.47423 34925 ft 398 kts 172°
2026-05-04 13:37 45.11486 1.49143 34921 ft 397 kts 171°
2026-05-04 13:37 45.06089 1.50859 34923 ft 398 kts 172°
2026-05-04 13:38 45.00686 1.52581 34924 ft 398 kts 172°
2026-05-04 13:38 44.95323 1.54290 34921 ft 398 kts 171°
2026-05-04 13:39 44.89929 1.55999 34920 ft 398 kts 172°
2026-05-04 13:39 44.84528 1.57698 34921 ft 398 kts 172°
2026-05-04 13:40 44.79114 1.59403 34932 ft 399 kts 172°
2026-05-04 13:40 44.73703 1.61111 34934 ft 399 kts 172°
2026-05-04 13:41 44.68279 1.62822 34929 ft 399 kts 172°
2026-05-04 13:41 44.62856 1.64514 34931 ft 400 kts 172°
2026-05-04 13:42 44.54705 1.67068 34926 ft 400 kts 172°
2026-05-04 13:42 44.49269 1.68764 34918 ft 400 kts 172°
2026-05-04 13:43 44.43831 1.70455 34916 ft 401 kts 172°
2026-05-04 13:43 44.38382 1.72143 34926 ft 401 kts 172°
2026-05-04 13:44 44.32935 1.73837 34935 ft 401 kts 172°
2026-05-04 13:44 44.27484 1.75464 34934 ft 400 kts 174°
2026-05-04 13:45 44.22045 1.76692 34936 ft 398 kts 176°
2026-05-04 13:45 44.16563 1.77793 34940 ft 398 kts 176°
2026-05-04 13:46 44.11084 1.78946 34935 ft 398 kts 176°
2026-05-04 13:46 44.05611 1.80156 34934 ft 398 kts 176°
2026-05-04 13:47 44.00145 1.81378 34930 ft 397 kts 176°
2026-05-04 13:47 43.94690 1.82547 34930 ft 395 kts 178°
2026-05-04 13:48 43.89237 1.83219 34925 ft 392 kts 182°
2026-05-04 13:48 43.83797 1.83627 34922 ft 392 kts 182°
2026-05-04 13:49 43.78362 1.84066 34922 ft 391 kts 182°
2026-05-04 13:49 43.72925 1.84580 34922 ft 391 kts 181°
2026-05-04 13:50 43.67492 1.85120 34927 ft 391 kts 181°
2026-05-04 13:50 43.62072 1.85648 34929 ft 390 kts 182°
2026-05-04 13:51 43.56650 1.86184 34926 ft 390 kts 182°
2026-05-04 13:51 43.51243 1.86701 34929 ft 389 kts 182°
2026-05-04 13:52 43.43142 1.87465 34924 ft 389 kts 182°
2026-05-04 13:53 43.37739 1.87991 34923 ft 389 kts 182°
2026-05-04 13:53 43.32345 1.88505 34924 ft 389 kts 182°
2026-05-04 13:54 43.24245 1.89282 34925 ft 389 kts 182°
2026-05-04 13:55 43.16186 1.90056 34923 ft 389 kts 182°